Weather History for KSNY - October, 2012

Change the Weather History Date:

Monday, October 1, 2012

  Actual Average Record
Temperature  
Mean Temperature 51 °F 56 °F  
Max Temperature 67 °F 71 °F 91 °F (1980)
Min Temperature 34 °F 41 °F 20 °F (1985)
Degree Days  
Heating Degree Days 14 10  
Month to date heating degree days 14 10  
Since 1 July heating degree days 130 150  
Cooling Degree Days 0 1  
Month to date cooling degree days 0 1  
Year to date cooling degree days 1165 827  
Growing Degree Days 2 (Base 50)    
Moisture  
Dew Point 40 °F    
Average Humidity 58    
Maximum Humidity 86    
Minimum Humidity 29    
Precipitation  
Precipitation 0.01 in 0.04 in 0.79 in (2014)
Month to date precipitation 0.01 0.04  
Year to date precipitation 6.38 16.45  
Sea Level Pressure  
Sea Level Pressure 30.19 in    
Wind  
Wind Speed 11 mph (North)    
Max Wind Speed 21 mph    
Max Gust Speed 28 mph    
Visibility 10 miles    
Events Rain    
T = Trace of Precipitation, MM = Missing Value Source: NWS Daily Summary

Daily Weather History Graph

Daily Weather History Graph

Search for Another Location

Airport or City:

Trip Planner

Search our weather history database for the weather conditions in past years. The results will help you decide how hot, cold, wet, or windy it might be!

Date:

Astronomy

Oct. 01, 2012 Rise Set
Actual Time 6:49 AM MDT 6:32 PM MDT
Civil Twilight 6:21 AM MDT 7:00 PM MDT
Nautical Twilight 5:49 AM MDT 7:32 PM MDT
Astronomical Twilight 5:17 AM MDT 8:04 PM MDT
Moon 7:09 PM MDT (10/1) 8:22 AM MDT (10/1)
Length of Visible Light 12h 38m
Length of Day
11h 43m
Full, 97% of the Moon is Illuminated
Oct 1
Full
Oct 8
Last Quarter
Oct 15
New
Oct 21
First Quarter
Oct 29
Full

Hourly Weather History & Observations

Time (MDT) Temp. Windchill Dew Point Humidity Pressure Visibility Wind Dir Wind Speed Gust Speed Precip Events Conditions
12:53 AM 57.0 °F - 44.1 °F 62% 30.06 in 10.0 mi North 3.5 mph - 0.00 in   Mostly Cloudy
1:53 AM 55.0 °F - 46.9 °F 74% 30.09 in 10.0 mi NW 12.7 mph - 0.01 in Rain Light Rain
2:53 AM 52.0 °F - 46.0 °F 80% 30.08 in 10.0 mi NW 9.2 mph - 0.00 in   Partly Cloudy
4:53 AM 50.0 °F - 44.1 °F 80% 30.12 in 10.0 mi NW 10.4 mph - N/A   Clear
5:53 AM 50.0 °F - 42.1 °F 74% 30.14 in 10.0 mi North 12.7 mph - N/A   Clear
6:53 AM 51.1 °F - 43.0 °F 74% 30.19 in 10.0 mi North 17.3 mph - N/A   Mostly Cloudy
7:53 AM 50.0 °F - 44.1 °F 80% 30.24 in 10.0 mi North 11.5 mph - N/A   Partly Cloudy
8:05 AM 51.8 °F - 44.6 °F 76% 30.30 in 10.0 mi North 12.7 mph - N/A   Mostly Cloudy
8:53 AM 50.0 °F - 46.0 °F 86% 30.27 in 9.0 mi North 16.1 mph 23.0 mph N/A   Overcast
9:37 AM 51.8 °F - 46.4 °F 82% 30.33 in 10.0 mi North 15.0 mph - N/A   Overcast
10:25 AM 55.4 °F - 46.4 °F 72% 30.32 in 10.0 mi North 13.8 mph - N/A   Mostly Cloudy
10:53 AM 55.9 °F - 46.0 °F 69% 30.26 in 10.0 mi NNE 12.7 mph - N/A   Overcast
11:22 AM 57.2 °F - 44.6 °F 63% 30.32 in 10.0 mi North 15.0 mph - N/A   Overcast
11:53 AM 60.1 °F - 44.1 °F 55% 30.22 in 10.0 mi North 10.4 mph - N/A   Overcast
12:53 PM 63.0 °F - 39.9 °F 43% 30.20 in 10.0 mi North 17.3 mph 23.0 mph N/A   Overcast
1:53 PM 66.0 °F - 37.9 °F 36% 30.17 in 10.0 mi North 19.6 mph 24.2 mph N/A   Partly Cloudy
3:53 PM 66.9 °F - 33.1 °F 28% 30.14 in 10.0 mi North 12.7 mph - N/A   Clear
4:53 PM 64.9 °F - 32.0 °F 29% 30.13 in 10.0 mi NNW 9.2 mph - N/A   Clear
5:53 PM 63.0 °F - 34.0 °F 34% 30.12 in 10.0 mi North 5.8 mph - N/A   Clear
6:53 PM 54.0 °F - 33.1 °F 45% 30.13 in 10.0 mi ENE 8.1 mph - N/A   Clear
7:53 PM 39.9 °F - 30.0 °F 68% 30.18 in 10.0 mi Calm Calm - N/A   Clear
8:53 PM 37.9 °F 35.5 °F 28.9 °F 70% 30.18 in 10.0 mi South 3.5 mph - N/A   Clear
10:53 PM 37.9 °F 30.9 °F 30.0 °F 73% 30.15 in 10.0 mi WSW 10.4 mph - N/A   Clear
11:53 PM 37.0 °F 29.8 °F 30.0 °F 76% 30.12 in 10.0 mi SW 10.4 mph - N/A   Clear